User: anonymous   Login
Location: Radford
(37.1320°N, 80.5770°W)
Time: 07:21:25
(UTC-05:00)
Language:

Okean 1-7 - Orbit

View from above orbital plane
View from above orbital plane
View from above satellite
View from above satellite

Ground track
Ground track

The orbit data is extracted from the following two-line orbital elements,

1 23317U 94066A   14353.44254536  .00002905  00000-0  32779-3 0  7377
2 23317 082.5396 254.1791 0019617 201.1544 329.5722 14.86120403 90616
Epoch (UTC): 19 December 2014 10:37:15
Eccentricity: 0.0019617
inclination: 82.5396°
perigee height: 596 km
apogee height: 624 km
right ascension of ascending node: 254.1791°
argument of perigee: 201.1544°
revolutions per day: 14.86120403
mean anomaly at epoch: 329.5722°
orbit number at epoch: 9061

The dashed part of the orbit path shows where the satellite is in the earth's shadow,  

DLR